Hourly Data Report for November 09, 2019

All times are specified in Local Standard Time (LST). Add 1 hour to adjust for Daylight Saving Time where and when it is observed.

SAINT JOHN A
NEW BRUNSWICK
Current Station Operator: NAVCAN

45°18'58.000" N
65°53'24.000" W
108.80 m
8104901
71609
YSJ

Download Data

Hourly Data (November 2019)
Hourly Data Report for November 9, 2019
TIME Temp Definition
°C
Dew Point Definition
°C
Rel Hum Definition
%
Wind Dir Definition
10's deg

Wind Spd Definition
km/h
Visibility Definition
km
Stn Press Definition
kPa
Hmdx Definition


Wind Chill Definition


Weather Definition


00:00 -5.2 -7.5 84 32 24 24.1 99.95   -12 Blowing Snow
01:00 -5.0 -7.5 83 33 28 24.1 100.04   -13 LegendNANA
02:00 -5.0 -7.6 82 32 34 24.1 100.17   -13 Blowing Snow
03:00 -5.4 -8.1 82 33 25 24.1 100.29   -13 Blowing Snow
04:00 -5.2 -8.1 80 32 24 24.1 100.39   -12 LegendNANA
05:00 -5.7 -8.7 80 32 22 24.1 100.48   -13 Clear
06:00 -5.5 -9.3 75 32 26 24.1 100.57   -13 LegendNANA
07:00 -6.2 -9.8 76 32 25 24.1 100.66   -14 LegendNANA
08:00 -6.5 -9.7 78 32 11 24.1 100.79   -11 Mainly Clear
09:00 -5.0 -8.4 77 36 3 24.1 100.87   -6 LegendNANA
10:00 -3.1 -7.8 70 30 14 24.1 100.92   -8 LegendNANA
11:00 -1.9 -7.5 66 27 11 24.1 100.96   -6 Mainly Clear
12:00 -1.6 -7.9 62 28 9 24.1 100.94   -5 LegendNANA
13:00 -0.3 -6.8 62 24 13 24.1 100.90   -4 LegendNANA
14:00 0.4 -7.0 58 22 10 24.1 100.86     Mainly Clear
15:00 0.8 -6.4 59 22 15 24.1 100.87     LegendNANA
16:00 0.2 -5.1 68 23 13 24.1 100.90     LegendNANA
17:00 -1.3 -6.0 70 23 7 24.1 100.92   -4 Mainly Clear
18:00 -3.2 -5.3 85 36 2 24.1 100.95   -4 LegendNANA
19:00 -3.6 -4.6 93 21 4 24.1 100.98   -5 LegendNANA
20:00 -1.0 -6.3 67 22 14 24.1 100.96   -5 Mostly Cloudy
21:00 -1.0 -6.4 67 22 9 24.1 100.93   -4 LegendNANA
22:00 -1.6 -4.1 83 9 3 16.1 100.91   -3 Snow Showers
23:00 -1.2 -2.7 90 24 5 4.8 100.88   -3 Snow Showers

Notes on Data Quality.

Legend

  • E = Estimated
  • M = Missing
  • NA = Not Available
Date modified: